Regional Weather Roundup
Issued by NWS

Home | Current Version | Previous Version | Text Only | Print | Product List | Glossary Off
Versions: 1 2 3 4 5 6 7 8 9 10 11 12 13 14 15 16 17 18 19 20 21 22 23 24 25 26 27 28 29 30 31 32 33 34 35 36 37 38 39 40 41 42 43 44 45 46 47 48 49 50

000
ASUS43 KOAX 220102
RWRNE

WEATHER ROUNDUP FOR NEBRASKA
NATIONAL WEATHER SERVICE OMAHA NE
800 PM CDT MON AUG 21 2017

NOTES: SATELLITE DATA IS BEING USED TO AUGMENT CLOUD COVER ABOVE
       12000 FEET.
       "FAIR" INDICATES FEW OR NO CLOUDS BELOW 12,000 FEET WITH NO
       SIGNIFICANT WEATHER AND/OR OBSTRUCTIONS TO VISIBILITY.


NEZ001>004-019>022-054>056-220200-
NEBRASKA PANHANDLE

CITY           SKY/WX    TMP DP  RH WIND       PRES   REMARKS
SCOTTSBLUFF    CLEAR     77  48  35 NE10      30.14S
ALLIANCE       CLEAR     74  47  38 NE13      30.13R
CHADRON        CLEAR     75  43  31 NE9       30.13S
GORDON         FAIR      73  46  38 N9        30.14R
KIMBALL        CLEAR     75  48  38 NE12      30.19S
SIDNEY         CLEAR     78  47  33 NE12      30.15S
$$

NEZ057>060-069>072-079>082-220200-
SOUTHWEST NEBRASKA

CITY           SKY/WX    TMP DP  RH WIND       PRES   REMARKS
NORTH PLATTE   PTCLDY    77  67  71 N15G23    30.03R
IMPERIAL       CLEAR     80  66  62 N15       30.04R
LEXINGTON      MOCLDY    80  71  73 N14       29.98R
MCCOOK         CLEAR     83  67  58 N5        29.96S
OGALLALA       CLEAR     78  64  61 N14       30.08R
$$

NEZ005>010-023>029-035>040-094-220200-
NORTH CENTRAL NEBRASKA

CITY           SKY/WX    TMP DP  RH WIND       PRES   REMARKS
VALENTINE      CLEAR     76  60  57 N10       30.07R
AINSWORTH      MOCLDY    72  67  84 NE6       30.07R
BROKEN BOW     CLOUDY    77  67  71 N12       30.01R
O`NEILL        CLOUDY    70  66  89 NE6       30.04R
ORD            CLOUDY    75  65  70 N8        29.99R
THEDFORD       MOCLDY    75  65  70 N9        30.08R
$$

NEZ041-046>049-061>064-073>077-083>087-220200-
SOUTH CENTRAL NEBRASKA

CITY           SKY/WX    TMP DP  RH WIND       PRES   REMARKS
GRAND ISLAND   CLOUDY    82  71  69 SW8       29.93S
AURORA         CLOUDY    79  70  74 SW5       29.92F
HASTINGS       CLOUDY    82  67  60 S3        29.94F
HEBRON         CLOUDY    81  71  73 CALM      29.90F
HOLDREGE       PTCLDY    78  72  80 NE3       29.96R
KEARNEY        MOCLDY    81  72  74 SE3       29.95F
$$

NEZ011>018-030>034-042>045-220200-
NORTHEAST NEBRASKA

CITY           SKY/WX    TMP DP  RH WIND       PRES   REMARKS
NORFOLK        TSTM      65  65 100 N15       29.99S FOG
ALBION         CLOUDY    72  67  85 N15G21    29.99R
BLAIR          CLOUDY    76  67  75 NE17      29.93S
COLUMBUS       CLOUDY    73  68  84 N20       29.93S
FREMONT        CLOUDY    79  71  78 E10       29.92F
TEKAMAH        CLOUDY    71  65  81 NE10      29.95S
WAYNE          TSTM      65  63  91 NE5       29.98F
$$

NEZ050>053-065>068-078-088>093-220200-
SOUTHEAST NEBRASKA

CITY           SKY/WX    TMP DP  RH WIND       PRES   REMARKS
LINCOLN        PTCLDY    80  72  76 S6        29.88F
OMAHA EPPLEY   MOCLDY    79  71  76 NE13      29.92F
BEATRICE       CLOUDY    81  73  76 S7        29.90F
FALLS CITY     CLOUDY    78  75  90 SE6       29.89F
NEBRASKA CITY  CLOUDY    80  76  90 CALM      29.89F
PLATTSMOUTH    CLOUDY    79  73  81 N3        29.89F
$$

NEZ044-045-051>053-067-220200-
OMAHA AREA

CITY           SKY/WX    TMP DP  RH WIND       PRES   REMARKS
OMAHA EPPLEY   MOCLDY    79  71  76 NE13      29.92F
BLAIR          CLOUDY    76  67  75 NE17      29.93S
FREMONT        CLOUDY    79  71  78 E10       29.92F
MILLARD        PTCLDY    83  74  75 NE3       29.90F HX  90
OFFUTT AFB     CLOUDY    80  73  78 NE9       29.89F
PLATTSMOUTH    CLOUDY    79  73  81 N3        29.89F
WAHOO          FAIR      79  74  85 E7        29.90F
$$




USA.gov is the U.S. government's official web portal to all federal, state and local government web resources and services.